Belleville, IL

1:33 AM CST on December 18, 2017 (GMT -0600)
Scott Air Force Base-Midamerica

Weather History for KBLV - January, 2014

Change the Weather History Date:

Sunday, January 12, 2014

  Actual Average Record
Temperature  
Mean Temperature 40 °F -  
Max Temperature 52 °F 36 °F 68 °F (2005)
Min Temperature 27 °F 18 °F -7 °F (1977)
Degree Days  
Heating Degree Days 26    
Moisture  
Dew Point 33 °F    
Average Humidity 75    
Maximum Humidity 99    
Minimum Humidity 52    
Precipitation  
Precipitation 0.00 in - - ()
Sea Level Pressure  
Sea Level Pressure 29.86 in    
Wind  
Wind Speed 7 mph (South)    
Max Wind Speed 15 mph    
Max Gust Speed 26 mph    
Visibility 10 miles    
Events      
Averages and records for this station are not official NWS values.
T = Trace of Precipitation, MM = Missing Value Source: NWS Daily Summary

Daily Weather History Graph

Daily Weather History Graph

Search for Another Location

Airport or City:

Trip Planner

Search our weather history database for the weather conditions in past years. The results will help you decide how hot, cold, wet, or windy it might be!

Date:

Astronomy

Jan. 12, 2014 Rise Set
Actual Time 7:16 AM CST 4:59 PM CST
Civil Twilight 6:47 AM CST 5:28 PM CST
Nautical Twilight 6:14 AM CST 6:01 PM CST
Astronomical Twilight 5:42 AM CST 6:33 PM CST
Moon 2:26 PM CST (1/12) 4:15 AM CST (1/12)
Length of Visible Light 10h 41m
Length of Day
9h 42m
Waxing Gibbous, 90% of the Moon is Illuminated
Jan 12
Waxing Gibbous
Jan 15
Full
Jan 23
Last Quarter
Jan 30
New
Feb 6
First Quarter

Hourly Weather History & Observations

Time (CST) Temp. Windchill Dew Point Humidity Pressure Visibility Wind Dir Wind Speed Gust Speed Precip Events Conditions
12:58 AM 36.1 °F 31.4 °F 30.9 °F 81% 29.95 in 10.0 mi West 5.8 mph - N/A   Clear
1:58 AM 33.1 °F - 29.8 °F 88% 29.96 in 10.0 mi WSW 2.3 mph - N/A   Clear
2:58 AM 27.3 °F - 27.1 °F 99% 29.97 in 10.0 mi SSW 2.3 mph - N/A   Clear
3:58 AM 28.0 °F 24.2 °F 27.9 °F 99% 29.97 in 10.0 mi South 3.5 mph - N/A   Clear
4:58 AM 27.3 °F - 27.1 °F 99% 29.97 in 10.0 mi South 2.3 mph - N/A   Clear
5:58 AM 27.7 °F 23.8 °F 27.5 °F 99% 29.99 in 10.0 mi SSW 3.5 mph - N/A   Clear
6:58 AM 27.5 °F 22.2 °F 27.3 °F 99% 29.98 in 10.0 mi South 4.6 mph - N/A   Clear
7:58 AM 30.0 °F 25.2 °F 29.7 °F 99% 29.99 in 10.0 mi South 4.6 mph - N/A   Clear
8:58 AM 37.0 °F 31.0 °F 34.5 °F 91% 29.98 in 10.0 mi SSE 8.1 mph - N/A   Clear
9:58 AM 42.1 °F 35.7 °F 34.7 °F 75% 29.98 in 10.0 mi South 11.5 mph - N/A   Clear
10:58 AM 45.3 °F 39.3 °F 35.1 °F 67% 29.95 in 10.0 mi South 12.7 mph 20.7 mph N/A   Clear
11:58 AM 48.4 °F - 35.2 °F 60% 29.89 in 10.0 mi SSE 8.1 mph 17.3 mph N/A   Clear
12:58 PM 50.5 °F - 36.0 °F 57% 29.84 in 10.0 mi South 11.5 mph 21.9 mph N/A   Clear
1:58 PM 52.9 °F - 36.5 °F 54% 29.80 in 10.0 mi SSE 11.5 mph 20.7 mph N/A   Clear
2:58 PM 52.9 °F - 35.4 °F 52% 29.78 in 10.0 mi South 11.5 mph 26.5 mph N/A   Clear
3:58 PM 51.8 °F - 36.0 °F 55% 29.75 in 10.0 mi SSE 11.5 mph 20.7 mph N/A   Clear
4:58 PM 49.6 °F - 37.4 °F 63% 29.74 in 10.0 mi South 13.8 mph 20.7 mph N/A   Clear
5:58 PM 48.6 °F - 38.3 °F 68% 29.75 in 10.0 mi South 15.0 mph 25.3 mph N/A   Clear
6:58 PM 48.7 °F - 37.2 °F 64% 29.74 in 10.0 mi South 12.7 mph 24.2 mph N/A   Clear
7:58 PM 47.5 °F - 35.8 °F 64% 29.77 in 10.0 mi South 9.2 mph - N/A   Clear
8:58 PM 46.0 °F 41.4 °F 34.2 °F 63% 29.78 in 10.0 mi South 9.2 mph - N/A   Clear
9:58 PM 46.4 °F 41.9 °F 35.8 °F 67% 29.76 in 10.0 mi South 9.2 mph - N/A   Clear
10:58 PM 45.9 °F 42.9 °F 35.4 °F 67% 29.74 in 10.0 mi South 5.8 mph - N/A   Clear
11:58 PM 45.5 °F 42.5 °F 35.4 °F 68% 29.72 in 10.0 mi South 5.8 mph - N/A   Clear